Regional Weather Roundup
Issued by NWS Cleveland, OH

Home | Current Version | Previous Version | Graphics & Text | Print | Product List | Glossary On
Versions: 1 2 3 4 5 6 7 8 9 10 11 12 13 14 15 16 17 18 19 20 21 22 23 24 25 26 27 28 29 30 31 32 33 34 35 36 37 38 39 40 41 42 43 44 45 46 47 48 49 50
000
ASUS41 KCLE 240112
RWRCLE
OHIO REGIONAL WEATHER ROUNDUP
NATIONAL WEATHER SERVICE WILMINGTON, OH
800 PM EST TUE JAN 23 2018

NOTE: "FAIR" INDICATES FEW OR NO CLOUDS BELOW 12,000 FEET WITH NO
SIGNIFICANT WEATHER AND/OR OBSTRUCTIONS TO VISIBILITY.

OHZ001>008-015>018-024>027-034-035-043-044-240200-
   NORTHWEST OHIO

CITY           SKY/WX    TMP DP  RH WIND       PRES   REMARKS
DEFIANCE       CLOUDY    31  25  78 W10G22    29.97R WCI  22
FINDLAY        CLOUDY    33  26  75 W22G28    29.94R WCI  21
TOLEDO EXPRESS CLOUDY    32  27  81 W18G29    29.93R WCI  20
TOLEDO EXEC    CLOUDY    33  26  75 W20G29    29.93R WCI  21
LIMA           CLOUDY    32  29  88 W17       29.97R WCI  21
$$

OHZ009>014-019>023-028>033-038-089-240200-
   NORTHEAST OHIO

CITY           SKY/WX    TMP DP  RH WIND       PRES   REMARKS
CLE-HOPKINS    FLURRIES  35  30  82 W21G26    29.90R WCI  24
CLE-LAKEFRONT  CLOUDY    33  29  85 W22G33    29.87R WCI  21
CUY CO. ARPT   DRIZZLE   34  32  93 W23G35    29.87R FOG     WCI  22
LORAIN-ELYRIA  CLOUDY    33  24  69 W20G32    29.90R WCI  21
ASHTABULA      CLOUDY    32  30  92 W18G28    29.83R FOG     WCI  20
AKRON-CANTON   FLURRIES  35  29  78 W20G29    29.87R WCI  24
WOOSTER        CLOUDY    33  29  85 W18G29    29.90R WCI  22
MANSFIELD      CLOUDY    32  28  85 W16G24    29.91R WCI  21
YOUNGSTOWN     FLURRIES  34  31  88 W18G24    29.83R WCI  23
$$

OHZ042-051>053-060>062-070>072-077>081-240200-
  SOUTHWEST OHIO

CITY           SKY/WX    TMP DP  RH WIND       PRES   REMARKS
CINC-COVINGTON LGT RAIN  36  32  85 W17G25    30.04R
CINC-LUNKEN    CLOUDY    39  32  76 W15       30.06R
HAMILTON       CLOUDY    36  34  92 W12       30.06R
DAYTON         CLOUDY    33  33 100 W14       30.01R FOG     WCI  23
WRIGHT-PAT AFB CLOUDY    35  32  88 W14       30.00R WCI  26
DAYTON GENERAL LGT SNOW  34  32  92 W6        30.01R FOG     WCI  29
WILMINGTON     CLOUDY    35  33  92 W14G21    30.01R WCI  26
$$

OHZ036-037-039>041-045>050-054>059-063>069-073>076-082>088-240200-
  CENTRAL AND SOUTHEAST OHIO

CITY           SKY/WX    TMP DP  RH WIND       PRES   REMARKS
COLUMBUS       CLOUDY    36  31  82 W16       29.97R
OSU AIRPORT    CLOUDY    35  31  85 W15       29.97R WCI  25
BOLTON FIELD   NOT AVBL
RICKENBACK AFB CLOUDY    35  33  89 W10       29.99R WCI  28
NEWARK         CLOUDY    37  31  78 W14       29.96R
MARION         CLOUDY    33  28  81 W16G23    29.96R WCI  23
LANCASTER      CLOUDY    36  32  85 W12       29.99R
ZANESVILLE     CLOUDY    37  32  82 W13       29.95R
NEW PHILLY     CLOUDY    38  31  76 W12G23    29.92R
$$



USA.gov is the U.S. government's official web portal to all federal, state and local government web resources and services.